EZY81E EGGP-EHAM

Flight info

Callsign EZY81E
Flight time N/A
Altitude 35000
Route BARTN L975 DESIG L603 LAMSO
Aircraft A20N/M-SDE2E3FGHIRWXY/LB1

Departure

Time 2026-04-30 18:45
Airport Liverpool John Lennon Airport (EGGP)

Arrival

Time N/A
Airport Amsterdam Airport Schiphol (EHAM)
Time Latitude Longitude Altitude Speed Heading
2026-04-30 18:37 53.33628 -2.85195 94 ft 0 kts 264°
2026-04-30 18:39 53.33630 -2.85170 96 ft 2 kts 262°
2026-04-30 18:39 53.33633 -2.85142 93 ft 2 kts 258°
2026-04-30 18:39 53.33636 -2.85116 93 ft 2 kts 251°
2026-04-30 18:39 53.33643 -2.85091 94 ft 2 kts 227°
2026-04-30 18:40 53.33657 -2.85078 92 ft 2 kts 182°
2026-04-30 18:40 53.33664 -2.85078 92 ft 0 kts 174°
2026-04-30 18:40 53.33665 -2.85078 92 ft 0 kts 174°
2026-04-30 18:41 53.33660 -2.85077 92 ft 2 kts 174°
2026-04-30 18:41 53.33630 -2.85072 93 ft 7 kts 175°
2026-04-30 18:41 53.33561 -2.85068 95 ft 12 kts 187°
2026-04-30 18:41 53.33542 -2.85092 94 ft 9 kts 240°
2026-04-30 18:42 53.33516 -2.85332 94 ft 16 kts 265°
2026-04-30 18:42 53.33490 -2.85725 94 ft 16 kts 264°
2026-04-30 18:42 53.33485 -2.85919 94 ft 18 kts 265°
2026-04-30 18:45 53.33532 -2.81396 1827 ft 137 kts 91°
2026-04-30 18:45 53.33630 -2.79770 2440 ft 153 kts 85°
2026-04-30 18:45 53.34298 -2.78202 2951 ft 192 kts 37°
2026-04-30 18:46 53.35637 -2.77542 3349 ft 229 kts
2026-04-30 18:46 53.37298 -2.77573 3876 ft 253 kts 358°
2026-04-30 18:46 53.39122 -2.77859 4498 ft 274 kts 355°
2026-04-30 18:46 53.41046 -2.78143 5158 ft 290 kts 356°
2026-04-30 18:47 53.42996 -2.77811 6096 ft 289 kts 21°
2026-04-30 18:47 53.44707 -2.76143 7024 ft 286 kts 47°
2026-04-30 18:47 53.45822 -2.73429 7884 ft 282 kts 73°
2026-04-30 18:47 53.46104 -2.70220 8785 ft 277 kts 99°
2026-04-30 18:48 53.45743 -2.67040 9720 ft 279 kts 106°
2026-04-30 18:48 53.45414 -2.63774 10519 ft 290 kts 100°
2026-04-30 18:48 53.45345 -2.60407 10884 ft 314 kts 92°
2026-04-30 18:48 53.45545 -2.56635 11216 ft 337 kts 86°
2026-04-30 18:49 53.45928 -2.52722 12027 ft 341 kts 84°
2026-04-30 18:49 53.46373 -2.48760 12903 ft 345 kts 83°
2026-04-30 18:49 53.46800 -2.45027 13697 ft 348 kts 84°
2026-04-30 18:49 53.47248 -2.41049 14448 ft 352 kts 84°
2026-04-30 18:50 53.47699 -2.36948 15170 ft 356 kts 84°
2026-04-30 18:50 53.48342 -2.32910 15877 ft 366 kts 70°
2026-04-30 18:50 53.49216 -2.30403 16361 ft 376 kts 57°
2026-04-30 18:50 53.51122 -2.27380 17022 ft 389 kts 37°
2026-04-30 18:51 53.53617 -2.25472 17728 ft 399 kts 17°
2026-04-30 18:51 53.57337 -2.25069 18333 ft 409 kts 352°
2026-04-30 18:51 53.59220 -2.25828 18438 ft 410 kts 340°
2026-04-30 18:51 53.61718 -2.28031 18325 ft 409 kts 322°
2026-04-30 18:52 53.63697 -2.31294 17914 ft 405 kts 304°
2026-04-30 18:52 53.64986 -2.35307 17416 ft 395 kts 285°
2026-04-30 18:52 53.65488 -2.39755 16899 ft 384 kts 270°
2026-04-30 18:52 53.65632 -2.44172 16393 ft 377 kts 263°
2026-04-30 18:53 53.65137 -2.48401 15878 ft 364 kts 244°
2026-04-30 18:53 53.63920 -2.52062 15402 ft 353 kts 226°
2026-04-30 18:53 53.62318 -2.55114 14920 ft 347 kts 223°
2026-04-30 18:53 53.60703 -2.58141 14445 ft 344 kts 223°
2026-04-30 18:54 53.59118 -2.61120 14000 ft 341 kts 223°
2026-04-30 18:54 53.57564 -2.64045 13481 ft 338 kts 224°
2026-04-30 18:54 53.55989 -2.67005 12956 ft 335 kts 224°
2026-04-30 18:54 53.54441 -2.69912 12437 ft 333 kts 224°
2026-04-30 18:55 53.53020 -2.72945 11929 ft 335 kts 237°
2026-04-30 18:55 53.52408 -2.80628 10952 ft 346 kts 281°
2026-04-30 18:55 53.53401 -2.84291 10485 ft 350 kts 303°
2026-04-30 18:56 53.57343 -2.88539 10055 ft 333 kts 351°
2026-04-30 18:56 53.59598 -2.88462 9922 ft 318 kts 15°
2026-04-30 18:56 53.61565 -2.86969 9637 ft 305 kts 40°
2026-04-30 18:57 53.63492 -2.81199 8855 ft 283 kts 91°
2026-04-30 18:57 53.63228 -2.77992 8463 ft 273 kts 114°
2026-04-30 18:57 53.62258 -2.75307 8025 ft 267 kts 136°
2026-04-30 18:58 53.59034 -2.72757 7336 ft 257 kts 170°
2026-04-30 18:58 53.57283 -2.72244 7189 ft 260 kts 170°
2026-04-30 18:58 53.55511 -2.71718 7160 ft 256 kts 169°
2026-04-30 18:59 53.51985 -2.71045 6779 ft 257 kts 189°
2026-04-30 19:00 53.48930 -2.77879 6152 ft 280 kts 262°
2026-04-30 19:00 53.48975 -2.81169 6151 ft 283 kts 276°
2026-04-30 19:00 53.50631 -2.87203 6158 ft 290 kts 310°
2026-04-30 19:01 53.52762 -2.92748 6160 ft 283 kts 275°
2026-04-30 19:01 53.52649 -2.95967 6155 ft 273 kts 248°
2026-04-30 19:02 53.50224 -3.00267 5807 ft 253 kts 195°
2026-04-30 19:02 53.46804 -3.01376 5200 ft 247 kts 189°
2026-04-30 19:03 53.43379 -3.02522 5079 ft 249 kts 189°
2026-04-30 19:03 53.40016 -3.03126 4556 ft 240 kts 165°
2026-04-30 19:04 53.37262 -3.00577 4498 ft 226 kts 149°
2026-04-30 19:04 53.34639 -2.97857 4499 ft 221 kts 149°
2026-04-30 19:05 53.32045 -2.95171 4499 ft 220 kts 150°
2026-04-30 19:05 53.29561 -2.92581 4501 ft 203 kts 149°
2026-04-30 19:06 53.27162 -2.90093 4496 ft 204 kts 150°
2026-04-30 19:06 53.25956 -2.88849 4498 ft 201 kts 149°
2026-04-30 19:06 53.23673 -2.86486 4499 ft 192 kts 150°
2026-04-30 19:07 53.21975 -2.83373 4499 ft 173 kts 130°
2026-04-30 19:07 53.21417 -2.81551 4505 ft 183 kts 111°
2026-04-30 19:08 53.20796 -2.77419 4501 ft 183 kts 110°
2026-04-30 19:08 53.20479 -2.73218 4446 ft 178 kts 99°
2026-04-30 19:08 53.20408 -2.71213 4139 ft 166 kts 102°
2026-04-30 19:09 53.19592 -2.67875 3530 ft 168 kts 95°
2026-04-30 19:09 53.19884 -2.65977 3455 ft 166 kts 80°
2026-04-30 19:09 53.20236 -2.64169 3389 ft 161 kts 80°
2026-04-30 19:10 53.21103 -2.60812 3043 ft 160 kts 70°
2026-04-30 19:10 53.22217 -2.57555 3021 ft 166 kts 64°
2026-04-30 19:11 53.22840 -2.55995 3021 ft 160 kts 69°
2026-04-30 19:11 53.24007 -2.52774 3020 ft 168 kts 60°
2026-04-30 19:11 53.24699 -2.51237 3018 ft 164 kts 67°
2026-04-30 19:12 53.25242 -2.49612 3023 ft 163 kts 70°
2026-04-30 19:12 53.25800 -2.48000 3021 ft 164 kts 67°
2026-04-30 19:12 53.26492 -2.46452 3011 ft 162 kts 65°
2026-04-30 19:13 53.27538 -2.43314 2549 ft 151 kts 70°
2026-04-30 19:13 53.28734 -2.40281 2346 ft 167 kts 63°
2026-04-30 19:13 53.29463 -2.38723 1904 ft 166 kts 59°
2026-04-30 19:14 53.30160 -2.37291 1588 ft 148 kts 61°
2026-04-30 19:14 53.30819 -2.35959 1176 ft 155 kts 57°
2026-04-30 19:14 53.31430 -2.34635 930 ft 137 kts 59°
2026-04-30 19:14 53.32052 -2.33409 664 ft 143 kts 54°
2026-04-30 19:15 53.32678 -2.32133 459 ft 142 kts 53°
2026-04-30 19:15 53.33805 -2.29808 211 ft 63 kts 52°
2026-04-30 19:15 53.34048 -2.29297 212 ft 51 kts 51°
2026-04-30 19:16 53.34254 -2.28877 213 ft 44 kts 50°
2026-04-30 19:16 53.34471 -2.28573 222 ft 38 kts 27°
2026-04-30 19:16 53.34830 -2.28157 236 ft 29 kts 50°
2026-04-30 19:17 53.34959 -2.27899 238 ft 28 kts 51°
2026-04-30 19:17 53.35186 -2.27421 249 ft 24 kts 51°
2026-04-30 19:17 53.35297 -2.27218 253 ft 23 kts 26°
2026-04-30 19:18 53.35474 -2.27335 261 ft 17 kts 316°
2026-04-30 19:18 53.35587 -2.27483 254 ft 0 kts 322°
2026-04-30 19:18 53.35606 -2.27508 251 ft 8 kts 321°
2026-04-30 19:19 53.35653 -2.27570 247 ft 9 kts 322°
2026-04-30 19:19 53.35742 -2.27654 247 ft 6 kts 343°
2026-04-30 19:20 53.35776 -2.27658 247 ft 4 kts 14°
2026-04-30 19:20 53.35797 -2.27653 247 ft 3 kts
2026-04-30 19:20 53.35851 -2.27662 247 ft 5 kts 358°
2026-04-30 19:21 53.35884 -2.27656 247 ft 5 kts
2026-04-30 19:21 53.35924 -2.27624 247 ft 2 kts 49°
2026-04-30 19:22 53.35932 -2.27601 247 ft 0 kts 55°